DECAYED
Showing default

ANAND, 54366 (Decayed)

Orbit data source: Space-Track

ANAND, 54366 was a payload satellite owned by Pixxel (IN) in LEO that was launched on Sat, 26 Nov 2022 UTC via a PSLV-XL launch vehicle from the Sirharikota (SRI). Payload-class satellites include a variety of spacecraft equipped with specific instruments for various scientific and technological missions. These include communications satellites like Starlink; space stations such as the ISS; scientific satellites like the Hubble; Earth observation satellites from companies like Planet Labs, Umbra, and HawkEye 360; GPS; miniature CubeSats for education and research; and military/defense satellites.

Not visible in the next 10 days
Identifier
54366, 2022-158F
Orbit
Decayed
Last TLE update
9 months ago
Origin
Manufacturer
Pixxel
Mission
Decayed Commercial Imaging
Bus & Motor
PIXXEL, Unknown motor
Mass
16.5 kg wet, 16.5 kg dry
Launch date (UTC)
2022-11-26 (3 years ago)
Launch vehicle
PSLV-XL
Launch site
Sirharikota (SRI)
Object type
Payload
Rocket body
Debris
Shape & HBR
Box, 0.3 m
Radar Cross Section
0.135 m², Medium (>0.1 m² and < 1m²)

Expand to show TLE details & history

TLE from 9 months ago
0 ANAND
1 54366U 22158F   24265.39636421  .17517893  26018-5  17088-3 0  9995
2 54366  97.4056  20.5026 0013723 284.7871  75.1913 16.50574558102280
Epoch: 2024-09-21T09:30Z
TLE epoch observation values (Epoch: 2024-09-21T09:30:45.867Z)
Latitude
-0.00007°
Longitude
-122.94271°
Altitude
138.814 km
Speed
7.824 km/s
True Right ascension
01h 22m 00s
True Declination
0° 00' 00"
Sunlit
Object was in full shadow at epoch
Visualization orbit readout
Visualization observer readout
Orbital elements
Apogee altitude
143.555 km
Perigee altitude
125.68 km
Semi-major axis
6,512.754 km
Eccentricity
0.00137
Inclination
97.4056°
RAAN
20.5026°
Arg. of periapsis
284.7871°
True anomaly
Unknown
Mean anomaly
75.1913°
Eccentric anomaly
Unknown
Mean motion
4.12949 °/min
Orbital period
87.18 mins
BSTAR
0.00017088
Loading maneuver chart data...
Loading SW <> Apogee altitude chart data...
Loading historical data...
Loading historical data...
Loading historical data...
Loading historical data...
Loading historical data...
Loading historical data...
Loading historical data...

ANAND Visibility

Observer location: undefined°, undefined°

This satellite is decayed
Span
Click to sort rows by Start time (UTC) header in descending order
Start Az.
Max El. time (UTC)
Max El. Az.
Max El.
End time (UTC)
End Az.
|